LA9NKA Weather Reports


time (UTC)temp
C
wind
direction
speed
KPH
gust
KPH
rain 1hr
cm
rain 24hr
cm
rain mn
cm
humidity
%
barometer
mb
20260507131017 -17 278 6.4 12.9 0.00 0.03 0.03 86 1016.6
20260507130017 -17 282 9.7 16.1 0.00 0.03 0.03 86 1016.8
20260507125046 -17 266 8.0 12.9 0.00 0.03 0.03 86 1016.7
20260507124045 -17 272 8.0 12.9 0.00 0.03 0.03 86 1016.7
20260507123044 -17 273 8.0 11.3 0.00 0.03 0.03 86 1016.8
20260507122044 -17 282 6.4 12.9 0.00 0.03 0.03 86 1016.8
20260507121043 -17 268 3.2 6.4 0.00 0.03 0.03 86 1016.9
20260507120042 -17 270 4.8 8.0 0.00 0.03 0.03 86 1016.9
20260507115041 -17 280 3.2 8.0 0.00 0.03 0.03 86 1016.9
20260507114040 -17 215 3.2 8.0 0.00 0.03 0.03 86 1017.0
20260507113039 -17 227 3.2 6.4 0.00 0.03 0.03 86 1017.1
20260507112039 -17 168 3.2 6.4 0.00 0.03 0.03 86 1017.2
20260507111038 -17 206 4.8 8.0 0.00 0.03 0.03 86 1017.1
20260507110037 -17 222 3.2 6.4 0.00 0.03 0.03 86 1017.2
20260507105036 -17 199 4.8 8.0 0.00 0.03 0.03 86 1017.1
20260507104033 -17 239 3.2 8.0 0.00 0.03 0.03 86 1017.0
20260507103033 -17 225 3.2 8.0 0.00 0.03 0.03 86 1017.0
20260507102032 -17 213 4.8 11.3 0.00 0.03 0.03 86 1017.0
20260507101029 -17 229 4.8 8.0 0.00 0.03 0.03 86 1017.0
20260507100028 -17 187 4.8 8.0 0.00 0.03 0.03 86 1016.9
20260507095057 -17 222 0.0 1.6 0.00 0.03 0.03 86 1016.9
20260507094026 -17 112 3.2 6.4 0.00 0.03 0.03 86 1016.8
20260507093025 -17 128 3.2 6.4 0.00 0.03 0.03 86 1016.8
20260507092025 -17 125 3.2 6.4 0.00 0.03 0.03 86 1016.8
20260507091024 -17 100 3.2 6.4 0.00 0.03 0.03 86 1016.8
20260507090023 -17 102 3.2 6.4 0.00 0.03 0.03 86 1016.8
20260507085052 -17 81 3.2 6.4 0.00 0.03 0.03 86 1016.8
20260507084021 -17 88 3.2 6.4 0.00 0.03 0.03 86 1016.8
20260507083118 -17 96 1.6 8.0 0.00 0.05 0.03 86 1016.7
20260507082047 -17 127 4.8 11.3 0.00 0.08 0.03 86 1016.6
20260507081046 -17 119 3.2 8.0 0.00 0.10 0.03 86 1016.5
20260507080045 -17 118 3.2 8.0 0.00 0.15 0.03 86 1016.5
20260507075044 -17 99 3.2 6.4 0.00 0.23 0.03 86 1016.4
20260507074041 -17 104 1.6 4.8 0.00 0.25 0.03 86 1016.4
20260507073040 -17 95 3.2 6.4 0.00 0.28 0.03 86 1016.4
20260507072039 -17 93 3.2 6.4 0.00 0.30 0.03 86 1016.4
20260507071038 -17 98 1.6 6.4 0.00 0.30 0.03 86 1016.3
20260507070037 -17 103 3.2 8.0 0.00 0.30 0.03 86 1016.3
20260507065037 -17 115 3.2 6.4 0.00 0.30 0.03 86 1016.3
20260507064035 -17 86 3.2 4.8 0.00 0.30 0.03 86 1016.3
20260507063032 -17 92 3.2 4.8 0.00 0.30 0.03 86 1016.2
20260507062031 -17 105 3.2 6.4 0.00 0.30 0.03 86 1016.2
20260507061030 -17 126 3.2 6.4 0.00 0.30 0.03 86 1016.2
20260507060029 -17 90 1.6 4.8 0.00 0.30 0.03 86 1016.1
20260507055129 -17 92 3.2 4.8 0.00 0.30 0.03 86 1016.1
20260507054027 -17 99 1.6 4.8 0.00 0.30 0.03 86 1016.1
20260507053057 -17 90 1.6 4.8 0.00 0.30 0.03 86 1016.0
20260507052055 -17 111 1.6 4.8 0.00 0.30 0.03 86 1016.0
20260507051125 -17 75 1.6 4.8 0.00 0.30 0.03 86 1015.9
20260507050024 -17 68 1.6 4.8 0.00 0.30 0.03 86 1015.8
20260507045323 -17 68 0.0 1.6 0.00 0.30 0.03 86 1015.8
20260507044053 -17 67 0.0 1.6 0.00 0.30 0.03 86 1015.7
20260507043122 -17 68 0.0 1.6 0.00 0.30 0.03 86 1015.7
20260507042221 -17 68 0.0 1.6 0.00 0.30 0.03 86 1015.7
20260507041020 -17 68 1.6 4.8 0.00 0.30 0.03 86 1015.6
20260507040019 -17 68 1.6 1.6 0.00 0.30 0.03 86 1015.6
20260507035048 -17 68 1.6 1.6 0.00 0.30 0.03 86 1015.5
20260507034048 -17 68 0.0 1.6 0.00 0.30 0.03 86 1015.6
20260507033047 -17 68 0.0 1.6 0.00 0.30 0.03 86 1015.5
20260507032116 -17 45 0.0 1.6 0.00 0.33 0.03 86 1015.5
20260507031046 -17 0.0 0.0 0.00 0.33 0.03 86 1015.5
20260507030214 -17 0.0 0.0 0.00 0.33 0.03 86 1015.4
20260507025536 -17 45 0.0 1.6 0.00 0.33 0.03 86 1015.5
20260507024535 -17 71 1.6 4.8 0.00 0.33 0.03 86 1015.4
20260507023604 -17 0.0 0.0 0.00 0.33 0.03 86 1015.3
20260507023004 -17 0.0 0.0 0.00 0.33 0.03 86 1015.3
20260507021829 -17 0.0 0.0 0.00 0.33 0.03 86 1015.2
20260507020529 -17 113 0.0 1.6 0.00 0.33 0.03 86 1015.1
20260507015627 -17 113 0.0 1.6 0.00 0.33 0.03 86 1015.1
20260507014927 -17 0.0 0.0 0.00 0.33 0.03 86 1015.1
20260507012557 -17 113 0.0 1.6 0.00 0.33 0.03 86 1015.1
20260507011555 -17 113 1.6 1.6 0.00 0.33 0.03 86 1015.1
20260507010554 -17 128 1.6 4.8 0.00 0.33 0.03 86 1015.1
20260507005553 -17 113 0.0 1.6 0.00 0.33 0.03 86 1015.1
20260507004552 -17 129 1.6 4.8 0.00 0.33 0.03 86 1015.1
20260507003522 -17 135 1.6 4.8 0.00 0.33 0.03 86 1015.0
20260507002521 -17 0.0 0.0 0.00 0.33 0.03 86 1015.0
20260507002020 -17 158 0.0 1.6 0.00 0.33 0.03 86 1015.1
20260507000650 -17 204 1.6 4.8 0.00 0.33 0.03 86 1015.1
20260506235705 -17 0.0 0.0 0.00 0.33 0.03 86 1015.2
20260506234604 -17 0.0 0.0 0.00 0.33 0.03 86 1015.2
20260506233533 -17 248 0.0 1.6 0.00 0.33 0.03 86 1015.3
20260506232533 -17 237 1.6 6.4 0.03 0.33 0.03 86 1015.2
20260506231559 -17 238 1.6 4.8 0.03 0.33 0.03 86 1015.2
20260506230528 -17 225 0.0 1.6 0.03 0.33 0.03 86 1015.2
20260506225657 -17 239 3.2 6.4 0.03 0.33 0.03 86 1015.1
20260506224556 -17 240 1.6 6.4 0.03 0.33 0.03 86 1015.0
20260506223656 -17 198 1.6 6.4 0.03 0.33 0.03 86 1015.0
20260506222623 -17 275 3.2 11.3 0.00 0.30 0.00 86 1015.1
20260506221521 -17 0.0 0.0 0.00 0.30 0.00 86 1015.0
20260506220648 -17 293 0.0 1.6 0.00 0.30 0.00 86 1015.0
20260506215517 -17 0.0 0.0 0.00 0.30 0.30 86 1014.8
20260506214516 -17 0.0 0.0 0.00 0.30 0.30 86 1014.8
20260506213616 -17 0.0 0.0 0.00 0.30 0.30 86 1014.8
20260506212045 -17 0.0 0.0 0.00 0.30 0.30 86 1014.7
20260506211114 -17 0.0 0.0 0.00 0.30 0.30 86 1014.8
20260506210343 -17 0.0 0.0 0.00 0.30 0.30 86 1014.7
20260506205612 -17 293 0.0 1.6 0.00 0.30 0.30 86 1014.8
20260506204641 -17 0.0 0.0 0.00 0.30 0.30 86 1014.7
20260506203537 -17 293 0.0 1.6 0.00 0.30 0.30 86 1014.7
20260506202607 -17 0.0 0.0 0.00 0.30 0.30 86 1014.7
20260506202006 -17 248 0.0 1.6 0.00 0.30 0.30 86 1014.8
20260506200535 -17 260 1.6 4.8 0.00 0.30 0.30 86 1014.8
20260506195534 -17 270 0.0 1.6 0.00 0.30 0.30 86 1014.8
20260506194533 -17 270 0.0 1.6 0.00 0.30 0.30 86 1014.7
20260506193733 -17 255 1.6 4.8 0.00 0.30 0.30 86 1014.7
20260506192801 -17 0.0 0.0 0.00 0.30 0.30 86 1014.6
20260506191558 -17 293 0.0 1.6 0.00 0.30 0.30 86 1014.6
20260506190657 -17 293 0.0 1.6 0.00 0.30 0.30 86 1014.6
20260506185653 -17 293 0.0 1.6 0.00 0.30 0.30 86 1014.5
20260506184552 -17 308 1.6 4.8 0.00 0.30 0.30 86 1014.4
20260506183550 -17 274 3.2 6.4 0.00 0.30 0.30 86 1014.3
20260506182519 -17 279 3.2 8.0 0.00 0.30 0.30 86 1014.3
20260506181548 -17 297 1.6 6.4 0.00 0.30 0.30 86 1014.3
20260506180647 -17 281 3.2 11.3 0.00 0.30 0.30 86 1014.3
20260506175644 -17 351 1.6 4.8 0.00 0.30 0.30 86 1014.3
20260506174543 -17 0 1.6 4.8 0.00 0.30 0.30 86 1014.3
20260506173539 -17 349 1.6 4.8 0.00 0.30 0.30 86 1014.2
20260506172609 -17 354 1.6 6.4 0.00 0.30 0.30 86 1014.3
20260506171638 -17 9 1.6 6.4 0.00 0.30 0.30 86 1014.2
20260506170635 -17 339 1.6 6.4 0.00 0.30 0.30 86 1014.3
20260506165534 -17 311 3.2 16.1 0.00 0.30 0.30 86 1014.2
20260506164533 -17 298 6.4 16.1 0.00 0.30 0.30 86 1014.2
20260506163532 -17 283 6.4 12.9 0.00 0.30 0.30 86 1014.1
20260506162532 -17 270 11.3 17.7 0.00 0.30 0.30 86 1014.2
20260506161531 -17 275 11.3 19.3 0.00 0.30 0.30 86 1014.2
20260506160528 -17 278 14.5 24.1 0.00 0.30 0.30 86 1014.2
20260506155627 -17 273 12.9 22.5 0.00 0.30 0.30 86 1014.1
20260506154526 -17 273 14.5 24.1 0.00 0.30 0.30 86 1014.0
20260506153552 -17 282 9.7 17.7 0.00 0.30 0.30 86 1014.0
20260506152549 -17 275 12.9 19.3 0.00 0.30 0.30 86 1014.0
20260506151545 -17 283 9.7 17.7 0.00 0.30 0.30 86 1014.1
20260506150542 -17 273 9.7 17.7 0.00 0.30 0.30 86 1014.1
20260506145541 -17 287 9.7 19.3 0.00 0.30 0.30 86 1014.1
20260506144640 -17 272 11.3 16.1 0.00 0.30 0.30 86 1014.2
20260506143539 -17 279 11.3 19.3 0.00 0.30 0.30 86 1014.2
20260506142538 -17 271 9.7 19.3 0.00 0.30 0.30 86 1014.3
20260506141638 -17 272 11.3 19.3 0.00 0.30 0.30 86 1014.2
20260506140537 -17 281 8.0 19.3 0.00 0.30 0.30 86 1014.1
20260506135536 -17 283 8.0 17.7 0.00 0.30 0.30 86 1014.2
20260506134532 -17 281 11.3 19.3 0.00 0.30 0.30 86 1014.2
20260506133632 -17 295 6.4 16.1 0.00 0.30 0.30 86 1014.2
20260506132531 -17 289 9.7 16.1 0.00 0.30 0.30 86 1014.2
20260506131530 -17 288 8.0 16.1 0.00 0.33 0.30 86 1014.3